BAW28 EGLL-FIMP

Flight info

Callsign BAW28
Flight time N/A
Altitude 33000
Route DET L6 DVR L9 KONAN UL607 REMBA M624 DIK N852 SUTAL DCT GTQ DCT BEGAR DCT ELMUR DCT RESIA DCT LATAN DCT SALUN N705 MMA L613 KIVIL N710 TAKRI P751 LXR M999 JDW G650 ULONI UV790 SB DCT DEKRA DCT DTI UR775 MOGDU UN304 MAEVA UL433 APKOT DCT TIBAG TIBAG2E
Aircraft A35K/H-SDE2E3GHIJ3J4J5LM1ORWXY/LB1D1

Departure

Time 2026-05-04 20:32
Airport London Heathrow Airport (EGLL)

Arrival

Time N/A
Airport Sir Seewoosagur Ramgoolam International Airport (FIMP)
Time Latitude Longitude Altitude Speed Heading
2026-05-04 19:59 51.47123 -0.47729 96 ft 0 kts 89°
2026-05-04 20:21 51.47123 -0.47730 92 ft 1 kts 89°
2026-05-04 20:21 51.47123 -0.47809 90 ft 1 kts 89°
2026-05-04 20:22 51.47125 -0.47844 90 ft 4 kts 116°
2026-05-04 20:22 51.47141 -0.47869 94 ft 4 kts 173°
2026-05-04 20:22 51.47166 -0.47870 93 ft 4 kts 179°
2026-05-04 20:22 51.47184 -0.47871 92 ft 0 kts 179°
2026-05-04 20:27 51.47183 -0.47871 92 ft 1 kts 179°
2026-05-04 20:27 51.47105 -0.47869 92 ft 21 kts 180°
2026-05-04 20:27 51.46952 -0.47868 93 ft 18 kts 179°
2026-05-04 20:27 51.46826 -0.47868 92 ft 19 kts 180°
2026-05-04 20:28 51.46695 -0.47872 94 ft 18 kts 194°
2026-05-04 20:28 51.46654 -0.48034 92 ft 11 kts 269°
2026-05-04 20:28 51.46654 -0.48078 92 ft 0 kts 269°
2026-05-04 20:29 51.46654 -0.48140 92 ft 12 kts 270°
2026-05-04 20:29 51.46653 -0.48332 96 ft 23 kts 270°
2026-05-04 20:29 51.46652 -0.48610 92 ft 25 kts 269°
2026-05-04 20:30 51.46613 -0.48749 95 ft 9 kts 213°
2026-05-04 20:30 51.46533 -0.48776 93 ft 16 kts 172°
2026-05-04 20:30 51.46479 -0.48618 95 ft 9 kts 91°
2026-05-04 20:30 51.46479 -0.48615 95 ft 0 kts 91°
2026-05-04 20:31 51.46479 -0.48606 94 ft 7 kts 91°
2026-05-04 20:31 51.46480 -0.48187 94 ft 67 kts 90°
2026-05-04 20:31 51.46482 -0.47135 94 ft 120 kts 89°
2026-05-04 20:31 51.46497 -0.45554 97 ft 163 kts 87°
2026-05-04 20:32 51.46479 -0.43750 604 ft 160 kts 89°
2026-05-04 20:32 51.46430 -0.41948 1104 ft 164 kts 90°
2026-05-04 20:32 51.46265 -0.40098 1398 ft 178 kts 111°
2026-05-04 20:32 51.45556 -0.38363 1654 ft 195 kts 123°
2026-05-04 20:33 51.44806 -0.36459 1912 ft 210 kts 115°
2026-05-04 20:33 51.44178 -0.34276 2273 ft 221 kts 109°
2026-05-04 20:33 51.43608 -0.31924 2639 ft 234 kts 108°
2026-05-04 20:33 51.43034 -0.29395 2992 ft 247 kts 107°
2026-05-04 20:34 51.42709 -0.27641 3356 ft 249 kts 103°
2026-05-04 20:34 51.42308 -0.24908 3878 ft 255 kts 101°
2026-05-04 20:34 51.41924 -0.22104 4395 ft 260 kts 101°
2026-05-04 20:34 51.41532 -0.19240 4917 ft 266 kts 101°
2026-05-04 20:35 51.41133 -0.16319 5470 ft 270 kts 102°
2026-05-04 20:35 51.40732 -0.13368 5893 ft 272 kts 102°
2026-05-04 20:35 51.40324 -0.10403 6016 ft 273 kts 102°
2026-05-04 20:35 51.39911 -0.07432 6009 ft 274 kts 102°
2026-05-04 20:36 51.39496 -0.04450 6002 ft 275 kts 102°
2026-05-04 20:36 51.39080 -0.01462 6006 ft 275 kts 102°
2026-05-04 20:36 51.38664 0.01522 6023 ft 275 kts 102°
2026-05-04 20:36 51.38245 0.04519 6021 ft 276 kts 102°
2026-05-04 20:37 51.37824 0.07530 6019 ft 278 kts 102°
2026-05-04 20:37 51.37406 0.10541 6027 ft 277 kts 102°
2026-05-04 20:37 51.36984 0.13543 6023 ft 277 kts 102°
2026-05-04 20:37 51.36561 0.16552 6017 ft 277 kts 102°
2026-05-04 20:38 51.36136 0.19563 6021 ft 278 kts 102°
2026-05-04 20:38 51.35712 0.22576 6015 ft 277 kts 102°
2026-05-04 20:38 51.35288 0.25576 6017 ft 276 kts 102°
2026-05-04 20:38 51.34869 0.28531 6018 ft 276 kts 102°
2026-05-04 20:39 51.34443 0.31531 6011 ft 277 kts 102°
2026-05-04 20:39 51.34016 0.34535 6015 ft 277 kts 102°
2026-05-04 20:39 51.33588 0.37536 6012 ft 276 kts 102°
2026-05-04 20:39 51.33162 0.40516 6083 ft 273 kts 102°
2026-05-04 20:40 51.32738 0.43481 6453 ft 275 kts 102°
2026-05-04 20:40 51.32310 0.46468 7072 ft 276 kts 102°
2026-05-04 20:40 51.31884 0.49462 7757 ft 277 kts 102°
2026-05-04 20:40 51.31452 0.52470 8408 ft 279 kts 103°
2026-05-04 20:41 51.31013 0.55507 9055 ft 282 kts 103°
2026-05-04 20:41 51.30569 0.58572 9720 ft 284 kts 103°
2026-05-04 20:41 51.30116 0.61673 10266 ft 291 kts 104°
2026-05-04 20:41 51.29577 0.64886 10534 ft 307 kts 106°
2026-05-04 20:42 51.28953 0.68240 10805 ft 323 kts 107°
2026-05-04 20:42 51.28280 0.71743 11076 ft 338 kts 107°
2026-05-04 20:42 51.27574 0.75413 11347 ft 353 kts 107°
2026-05-04 20:42 51.26849 0.79234 11612 ft 367 kts 107°
2026-05-04 20:43 51.26107 0.83198 11900 ft 378 kts 107°
2026-05-04 20:43 51.25354 0.87252 12396 ft 383 kts 106°
2026-05-04 20:43 51.24597 0.91349 12933 ft 386 kts 106°
2026-05-04 20:43 51.23833 0.95484 13499 ft 390 kts 106°
2026-05-04 20:44 51.23061 0.99655 14006 ft 394 kts 106°
2026-05-04 20:44 51.22281 1.03857 14550 ft 396 kts 107°
2026-05-04 20:44 51.21492 1.08092 15007 ft 401 kts 107°
2026-05-04 20:44 51.20694 1.12373 15462 ft 405 kts 107°
2026-05-04 20:45 51.19887 1.16684 16026 ft 406 kts 107°
2026-05-04 20:45 51.19075 1.21009 16513 ft 409 kts 107°
2026-05-04 20:45 51.18254 1.25373 16974 ft 413 kts 107°
2026-05-04 20:45 51.17434 1.29719 17445 ft 416 kts 107°
2026-05-04 20:46 51.16659 1.34174 17984 ft 419 kts 103°
2026-05-04 20:46 51.16190 1.38769 18422 ft 423 kts 98°
2026-05-04 20:46 51.15861 1.43455 18809 ft 427 kts 96°
2026-05-04 20:46 51.15604 1.48199 19202 ft 432 kts 95°
2026-05-04 20:47 51.15382 1.52982 19631 ft 435 kts 95°
2026-05-04 20:47 51.15170 1.57808 20076 ft 438 kts 95°
2026-05-04 20:47 51.14954 1.62664 20539 ft 442 kts 95°
2026-05-04 20:47 51.14727 1.67562 20996 ft 445 kts 95°
2026-05-04 20:48 51.14490 1.72493 21428 ft 449 kts 96°
2026-05-04 20:48 51.14243 1.77464 21878 ft 452 kts 96°
2026-05-04 20:48 51.13990 1.82458 22339 ft 455 kts 96°
2026-05-04 20:48 51.13732 1.87506 22747 ft 459 kts 96°
2026-05-04 20:49 51.13469 1.92580 23209 ft 461 kts 95°
2026-05-04 20:49 51.13203 1.97678 23673 ft 464 kts 96°
2026-05-04 20:49 51.12935 2.02825 23997 ft 468 kts 96°
2026-05-04 20:49 51.12664 2.07988 24436 ft 469 kts 96°
2026-05-04 20:50 51.12387 2.13179 24794 ft 472 kts 96°
2026-05-04 20:50 51.12104 2.18398 25187 ft 474 kts 96°
2026-05-04 20:50 51.11818 2.23631 25598 ft 476 kts 96°
2026-05-04 20:50 51.11529 2.28897 25939 ft 479 kts 96°
2026-05-04 20:51 51.11236 2.34185 26329 ft 481 kts 96°
2026-05-04 20:51 51.10940 2.39491 26672 ft 483 kts 96°
2026-05-04 20:51 51.10640 2.44835 27015 ft 486 kts 96°
2026-05-04 20:51 51.10337 2.50196 27393 ft 487 kts 96°
2026-05-04 20:52 51.10030 2.55584 27745 ft 490 kts 96°
2026-05-04 20:52 51.09712 2.60986 28105 ft 491 kts 97°
2026-05-04 20:52 51.09143 2.66345 28422 ft 492 kts 105°
2026-05-04 20:52 51.08313 2.71621 28742 ft 493 kts 107°
2026-05-04 20:53 51.07409 2.76877 29185 ft 492 kts 107°
2026-05-04 20:53 51.06468 2.82095 29717 ft 490 kts 108°
2026-05-04 20:53 51.05515 2.87274 30201 ft 487 kts 108°
2026-05-04 20:53 51.04560 2.92432 30555 ft 486 kts 108°
2026-05-04 20:54 51.03605 2.97586 30807 ft 487 kts 108°
2026-05-04 20:54 51.02649 3.02753 31075 ft 488 kts 108°
2026-05-04 20:54 51.01694 3.07920 31350 ft 488 kts 108°
2026-05-04 20:54 51.00739 3.13090 31621 ft 488 kts 108°
2026-05-04 20:55 50.99783 3.18261 31870 ft 488 kts 108°
2026-05-04 20:55 50.98837 3.23362 32127 ft 488 kts 108°
2026-05-04 20:55 50.97876 3.28536 32372 ft 489 kts 108°
2026-05-04 20:55 50.96912 3.33709 32604 ft 489 kts 108°
2026-05-04 20:56 50.95944 3.38883 32837 ft 489 kts 108°
2026-05-04 20:56 50.94973 3.44061 32956 ft 492 kts 108°
2026-05-04 20:56 50.93003 3.54518 32967 ft 496 kts 108°
2026-05-04 20:57 50.91022 3.64989 32967 ft 496 kts 108°
2026-05-04 20:57 50.89026 3.75418 32965 ft 496 kts 109°
2026-05-04 20:58 50.86985 3.85927 32965 ft 497 kts 109°
2026-05-04 20:58 50.84960 3.96309 32964 ft 497 kts 109°
2026-05-04 20:59 50.82918 4.06745 32963 ft 497 kts 109°
2026-05-04 20:59 50.80867 4.17174 32966 ft 497 kts 110°
2026-05-04 21:00 50.78804 4.27605 32971 ft 498 kts 110°
2026-05-04 21:00 50.76730 4.38041 32973 ft 498 kts 110°
2026-05-04 21:01 50.74647 4.48468 32958 ft 498 kts 110°
2026-05-04 21:01 50.72555 4.58887 32952 ft 498 kts 110°
2026-05-04 21:02 50.70496 4.69316 32959 ft 498 kts 110°